Miscellaneous Local Product
Issued by NWS Hastings, NE

Home | Current Version | Previous Version | Graphics & Text | Print | Product List | Glossary On
Versions: 1 2 3 4 5 6 7 8 9 10 11 12 13 14 15 16 17 18 19 20 21 22 23 24 25 26 27 28 29 30 31 32 33 34 35 36 37 38 39 40 41 42 43 44 45 46 47 48 49 50
000
AXUS43 KGID 251902
MISGRI

GID CWA HOURLY WEATHER ROUNDUP
NATIONAL WEATHER SERVICE HASTINGS NE
200 PM CDT WED MAY 25 2016

NOTE: "FAIR" INDICATES FEW OR NO CLOUDS BELOW 12,000 FEET WITH NO
SIGNIFICANT WEATHER AND/OR OBSTRUCTIONS TO VISIBILITY.

...SOUTH CENTRAL NEBRASKA...

CITY           SKY/WX    TMP DP  RH WIND       PRES   REMARKS
GRAND ISLAND   MOSUNNY   76  61  59 SW6       29.86S
HASTINGS       PTSUNNY   73  62  68 S10       29.85S
KEARNEY        PTSUNNY   73  61  64 SW8       29.88S
ORD            MOSUNNY   77  59  53 SW14      29.84F
YORK           PTSUNNY   75  64  69 S15       29.84F
AURORA         PTSUNNY   76  63  64 SW13G18   29.84F
LEXINGTON      MOSUNNY   74  59  58 CALM      29.88S
HOLDREGE       PTSUNNY   73  61  65 SW6       29.87S
HEBRON         CLOUDY    73  65  75 S16       29.85F

...NEBRASKA PANHANDLE...

CITY           SKY/WX    TMP DP  RH WIND       PRES   REMARKS
CHADRON        MOSUNNY   68  47  46 W10       29.90S
ALLIANCE       SUNNY     68  42  38 SW15      29.91F
SCOTTSBLUFF    MOSUNNY   70  36  28 W23       29.93S
SIDNEY         SUNNY     72  45  37 SW10G20   29.96F

...WESTERN AND NORTH CENTRAL NEBRASKA...

CITY           SKY/WX    TMP DP  RH WIND       PRES   REMARKS
VALENTINE      SUNNY     76  51  41 W10       29.84F
AINSWORTH      MOSUNNY   75  55  50 W16G22    29.86F
ONEILL         SUNNY     77  57  49 SW16      29.84F
BROKEN BOW     MOSUNNY   75  59  57 W14       29.88S
IMPERIAL       SUNNY     73  54  51 VRB3      29.92F
NORTH PLATTE   SUNNY     76  56  49 W6        29.89F
MCCOOK         SUNNY     76  56  49 CALM      29.88F

...EASTERN NEBRASKA...

CITY           SKY/WX    TMP DP  RH WIND       PRES   REMARKS
NORFOLK        MOSUNNY   79  60  52 SW13      29.83F
SO SIOUX CITY  SUNNY     79  61  53 S12       29.82F
TEKAMAH        SUNNY     79  60  52 S10       29.83F
COLUMBUS       PTSUNNY   79  59  50 S13G20    29.85S
ALBION         PTSUNNY   77  61  57 SW9       29.85F
OMAHA EPPLEY   MOSUNNY   79  62  56 S10       29.84R
OFFUTT AFB     SUNNY     78  63  59 SE14      29.83S
MILLARD        SUNNY     78  62  59 S8        29.84R
LINCOLN        MOSUNNY   77  64  64 S20G29    29.83S
NEBRASKA CITY  MOSUNNY   77  60  57 S21G28    29.85F
BEATRICE       CLOUDY    73  63  69 S13G26    29.86S
FALLS CITY     MOSUNNY   76  64  66 S18G25    29.87F

...NORTHERN KANSAS...

CITY           SKY/WX    TMP DP  RH WIND       PRES   REMARKS
GOODLAND       SUNNY     71  54  54 E5        29.94F
HILL CITY      CLOUDY    69  61  75 SW5       29.89R
NORTON         CLOUDY    70  55  60 S6        29.89R
PHILLIPSBURG   CLOUDY    72  63  73 SE7       29.87S
SMITH CENTER   PTSUNNY   72  63  73 SE13      29.86F
BELOIT         CLOUDY    70  63  78 E8        29.85
HAYS           CLOUDY    66  63  88 NE6       29.85F
RUSSELL        MOSUNNY   73  67  81 NE9       29.83F
CONCORDIA      CLOUDY    73  65  75 SE12      29.86S
SALINA         PTSUNNY   83  71  67 S13       29.83F
TOPEKA         MOSUNNY   78  65  63 S10       29.88F



USA.gov is the U.S. government's official web portal to all federal, state and local government web resources and services.